Time,TemperatureF,DewpointF,PressureIn,WindDirection,WindDirectionDegrees,WindSpeedMPH,WindSpeedGustMPH,Humidity,HourlyPrecipIn,Conditions,Clouds,dailyrainin,SoftwareType,DateUTC
2013-08-08 00:57:00,67.5,60.1,29.20,NNE,23,2.2,2.2,77,0.00,,,0.00,WUHU21623XXSP,2013-08-08 05:57:00,
2013-08-08 01:57:00,67.3,59.9,29.21,NNE,23,0.0,0.0,77,0.00,,,0.00,WUHU21623XXSP,2013-08-08 06:57:00,
2013-08-08 02:57:00,66.0,59.4,29.20,NNE,23,0.0,0.0,79,0.00,,,0.00,WUHU21623XXSP,2013-08-08 07:57:00,
2013-08-08 03:57:00,65.7,59.1,29.19,NNE,23,2.0,2.0,79,0.00,,,0.00,WUHU21623XXSP,2013-08-08 08:57:00,
2013-08-08 04:57:00,64.9,58.3,29.18,NNE,23,0.0,0.0,79,0.00,,,0.00,WUHU21623XXSP,2013-08-08 09:57:00,
2013-08-08 05:26:00,64.0,58.1,29.18,NNE,22,0.0,0.0,81,0.00,,,0.00,WUHU21623XXSP,2013-08-08 10:26:00,
2013-08-08 05:31:00,64.0,58.1,29.18,NNE,22,1.8,1.8,81,0.00,,,0.00,WUHU21623XXSP,2013-08-08 10:31:00,
2013-08-08 05:36:00,64.0,58.1,29.18,NNE,22,0.0,1.8,81,0.00,,,0.00,WUHU21623XXSP,2013-08-08 10:36:00,
2013-08-08 05:41:00,63.7,57.7,29.18,NNE,22,0.0,1.8,81,0.00,,,0.00,WUHU21623XXSP,2013-08-08 10:41:00,
2013-08-08 05:46:00,63.7,57.7,29.18,NNE,22,0.0,0.0,81,0.00,,,0.00,WUHU21623XXSP,2013-08-08 10:46:00,
2013-08-08 05:51:00,63.7,57.7,29.18,NNE,22,0.0,0.0,81,0.00,,,0.00,WUHU21623XXSP,2013-08-08 10:51:00,
2013-08-08 05:56:00,63.7,57.7,29.19,NNE,22,0.0,0.0,81,0.00,,,0.00,WUHU21623XXSP,2013-08-08 10:56:00,
2013-08-08 06:01:00,63.7,57.7,29.19,NNE,22,0.0,0.0,81,0.00,,,0.00,WUHU21623XXSP,2013-08-08 11:01:00,
2013-08-08 06:06:00,63.7,57.7,29.19,NNE,22,0.0,0.0,81,0.00,,,0.00,WUHU21623XXSP,2013-08-08 11:06:00,
2013-08-08 06:11:00,63.5,57.5,29.19,NNE,22,1.6,1.6,81,0.00,,,0.00,WUHU21623XXSP,2013-08-08 11:11:00,
2013-08-08 06:16:00,63.5,57.5,29.20,NNE,22,2.0,2.0,81,0.00,,,0.00,WUHU21623XXSP,2013-08-08 11:16:00,
2013-08-08 06:21:00,63.3,57.7,29.20,NNE,22,0.9,2.2,82,0.00,,,0.00,WUHU21623XXSP,2013-08-08 11:21:00,
2013-08-08 06:26:00,63.1,57.5,29.20,NNE,22,0.0,2.2,82,0.00,,,0.00,WUHU21623XXSP,2013-08-08 11:26:00,
2013-08-08 06:31:00,63.1,57.5,29.20,NNE,22,0.0,1.8,82,0.00,,,0.00,WUHU21623XXSP,2013-08-08 11:31:00,
2013-08-08 06:36:00,63.1,57.5,29.20,NNE,22,0.7,1.8,82,0.00,,,0.00,WUHU21623XXSP,2013-08-08 11:36:00,
2013-08-08 06:41:00,63.1,57.5,29.20,NNE,22,0.0,0.7,82,0.00,,,0.00,WUHU21623XXSP,2013-08-08 11:41:00,
2013-08-08 06:46:00,63.1,57.5,29.21,NNE,22,0.0,0.0,82,0.00,,,0.00,WUHU21623XXSP,2013-08-08 11:46:00,
2013-08-08 06:51:00,63.3,57.7,29.21,NNE,22,0.0,0.0,82,0.00,,,0.00,WUHU21623XXSP,2013-08-08 11:51:00,
2013-08-08 06:56:00,63.3,57.7,29.21,NNE,22,2.0,2.0,82,0.00,,,0.00,WUHU21623XXSP,2013-08-08 11:56:00,
2013-08-08 07:01:00,63.3,57.7,29.22,NNE,22,1.3,2.0,82,0.00,,,0.00,WUHU21623XXSP,2013-08-08 12:01:00,
2013-08-08 07:06:00,63.3,57.7,29.22,NNE,22,1.6,2.0,82,0.00,,,0.00,WUHU21623XXSP,2013-08-08 12:06:00,
2013-08-08 07:11:00,63.3,57.7,29.22,NNE,22,0.0,1.6,82,0.00,,,0.00,WUHU21623XXSP,2013-08-08 12:11:00,
2013-08-08 07:16:00,63.5,57.9,29.22,NNE,22,0.0,0.0,82,0.00,,,0.00,WUHU21623XXSP,2013-08-08 12:16:00,
2013-08-08 07:21:00,63.9,58.6,29.22,NNE,22,0.0,1.8,83,0.00,,,0.00,WUHU21623XXSP,2013-08-08 12:21:00,
2013-08-08 07:26:00,64.0,58.4,29.22,NNE,22,0.0,1.8,82,0.00,,,0.00,WUHU21623XXSP,2013-08-08 12:26:00,
2013-08-08 07:31:00,64.2,58.9,29.22,NNE,22,0.0,1.6,83,0.00,,,0.00,WUHU21623XXSP,2013-08-08 12:31:00,
2013-08-08 07:36:00,64.9,59.3,29.22,NNE,22,1.1,2.0,82,0.00,,,0.00,WUHU21623XXSP,2013-08-08 12:36:00,
2013-08-08 07:41:00,65.3,59.7,29.22,NNE,22,0.4,5.1,82,0.00,,,0.00,WUHU21623XXSP,2013-08-08 12:41:00,
2013-08-08 07:46:00,65.7,60.0,29.22,NNE,22,0.0,5.1,82,0.00,,,0.00,WUHU21623XXSP,2013-08-08 12:46:00,
2013-08-08 07:51:00,66.0,60.0,29.22,NNE,22,0.9,4.3,81,0.00,,,0.00,WUHU21623XXSP,2013-08-08 12:51:00,
2013-08-08 07:56:00,66.0,60.0,29.21,NNE,22,1.3,4.3,81,0.00,,,0.00,WUHU21623XXSP,2013-08-08 12:56:00,
2013-08-08 08:01:00,66.2,60.2,29.21,NNE,22,4.9,4.9,81,0.00,,,0.00,WUHU21623XXSP,2013-08-08 13:01:00,
2013-08-08 08:06:00,66.7,60.6,29.22,NNE,22,2.5,4.9,81,0.00,,,0.00,WUHU21623XXSP,2013-08-08 13:06:00,
2013-08-08 08:11:00,66.9,60.8,29.22,NNE,22,0.9,2.5,81,0.00,,,0.00,WUHU21623XXSP,2013-08-08 13:11:00,
2013-08-08 08:16:00,67.3,61.3,29.22,NNE,22,0.9,0.9,81,0.00,,,0.00,WUHU21623XXSP,2013-08-08 13:16:00,
2013-08-08 08:21:00,67.8,61.5,29.21,ENE,67,2.0,2.0,80,0.00,,,0.00,WUHU21623XXSP,2013-08-08 13:21:00,
2013-08-08 08:26:00,68.4,61.7,29.21,ENE,67,2.0,2.0,80,0.00,,,0.00,WUHU21623XXSP,2013-08-08 13:26:00,
2013-08-08 08:31:00,68.7,62.0,29.21,SE,135,0.0,2.0,79,0.00,,,0.00,WUHU21623XXSP,2013-08-08 13:31:00,
2013-08-08 08:36:00,69.4,63.0,29.21,SSE,157,4.3,4.3,80,0.00,,,0.00,WUHU21623XXSP,2013-08-08 13:36:00,
2013-08-08 08:41:00,69.6,62.8,29.21,SE,135,0.0,4.3,79,0.00,,,0.00,WUHU21623XXSP,2013-08-08 13:41:00,
2013-08-08 08:46:00,70.2,62.8,29.21,SE,135,0.0,1.1,79,0.00,,,0.00,WUHU21623XXSP,2013-08-08 13:46:00,
2013-08-08 08:51:00,70.5,63.3,29.21,ESE,112,0.0,0.0,77,0.00,,,0.00,WUHU21623XXSP,2013-08-08 13:51:00,
2013-08-08 08:56:00,71.2,63.3,29.21,ESE,112,0.0,0.0,77,0.00,,,0.00,WUHU21623XXSP,2013-08-08 13:56:00,
2013-08-08 09:01:00,71.4,63.2,29.21,SSW,202,0.0,0.0,76,0.00,,,0.00,WUHU21623XXSP,2013-08-08 14:01:00,
2013-08-08 09:06:00,72.1,63.4,29.21,NNW,337,0.0,2.0,75,0.00,,,0.00,WUHU21623XXSP,2013-08-08 14:06:00,
2013-08-08 09:11:00,72.3,63.4,29.22,NNE,22,3.8,3.8,73,0.00,,,0.00,WUHU21623XXSP,2013-08-08 14:11:00,
2013-08-08 09:16:00,72.7,63.4,29.22,NNE,22,1.3,3.8,73,0.00,,,0.00,WUHU21623XXSP,2013-08-08 14:16:00,
2013-08-08 09:21:00,73.2,63.7,29.21,SE,135,1.3,1.3,72,0.00,,,0.00,WUHU21623XXSP,2013-08-08 14:21:00,
2013-08-08 09:26:00,73.8,63.8,29.22,ENE,67,0.0,1.3,71,0.00,,,0.00,WUHU21623XXSP,2013-08-08 14:26:00,
2013-08-08 09:31:00,74.3,64.3,29.22,NE,45,1.1,1.3,71,0.00,,,0.00,WUHU21623XXSP,2013-08-08 14:31:00,
2013-08-08 09:36:00,75.0,64.6,29.22,NNE,22,0.7,2.2,70,0.00,,,0.00,WUHU21623XXSP,2013-08-08 14:36:00,
2013-08-08 09:41:00,75.4,64.5,29.23,NNE,22,0.0,2.2,68,0.00,,,0.00,WUHU21623XXSP,2013-08-08 14:41:00,
2013-08-08 09:46:00,75.6,64.2,29.23,NE,45,1.3,1.3,68,0.00,,,0.00,WUHU21623XXSP,2013-08-08 14:46:00,
2013-08-08 09:51:00,75.7,64.4,29.23,NE,45,1.8,1.8,68,0.00,,,0.00,WUHU21623XXSP,2013-08-08 14:51:00,
2013-08-08 09:56:00,75.7,64.4,29.23,NE,45,1.8,1.8,67,0.00,,,0.00,WUHU21623XXSP,2013-08-08 14:56:00,
2013-08-08 10:01:00,75.6,63.8,29.23,ENE,67,0.0,1.8,67,0.00,,,0.00,WUHU21623XXSP,2013-08-08 15:01:00,
2013-08-08 10:06:00,75.7,64.0,29.24,NNE,22,0.7,2.9,67,0.00,,,0.00,WUHU21623XXSP,2013-08-08 15:06:00,
2013-08-08 10:11:00,75.9,64.1,29.24,ENE,67,0.9,2.9,67,0.00,,,0.00,WUHU21623XXSP,2013-08-08 15:11:00,
2013-08-08 10:16:00,76.5,64.7,29.24,ESE,112,0.0,1.1,67,0.00,,,0.00,WUHU21623XXSP,2013-08-08 15:16:00,
2013-08-08 10:21:00,77.2,64.9,29.24,NNE,22,0.7,2.7,66,0.00,,,0.00,WUHU21623XXSP,2013-08-08 15:21:00,
2013-08-08 10:26:00,77.4,64.7,29.24,NNE,22,2.7,2.7,65,0.00,,,0.00,WUHU21623XXSP,2013-08-08 15:26:00,
2013-08-08 10:31:00,77.5,64.4,29.24,NNE,22,0.0,4.3,64,0.00,,,0.00,WUHU21623XXSP,2013-08-08 15:31:00,
2013-08-08 10:36:00,77.5,64.4,29.25,NE,45,0.4,4.3,64,0.00,,,0.00,WUHU21623XXSP,2013-08-08 15:36:00,
2013-08-08 10:41:00,77.9,64.7,29.25,NNE,22,4.5,4.5,64,0.00,,,0.00,WUHU21623XXSP,2013-08-08 15:41:00,
2013-08-08 10:46:00,78.1,64.9,29.25,NNE,22,0.0,4.5,64,0.00,,,0.00,WUHU21623XXSP,2013-08-08 15:46:00,
2013-08-08 10:51:00,78.4,65.2,29.24,North,0,3.8,3.8,64,0.00,,,0.00,WUHU21623XXSP,2013-08-08 15:51:00,
2013-08-08 10:56:00,78.4,65.2,29.24,SE,135,3.8,3.8,64,0.00,,,0.00,WUHU21623XXSP,2013-08-08 15:56:00,
2013-08-08 11:01:00,78.6,65.4,29.24,NE,45,4.9,4.9,64,0.00,,,0.00,WUHU21623XXSP,2013-08-08 16:01:00,
2013-08-08 11:06:00,78.6,65.0,29.25,NNE,22,2.7,4.9,63,0.00,,,0.00,WUHU21623XXSP,2013-08-08 16:06:00,
2013-08-08 11:11:00,78.6,65.0,29.24,ESE,112,1.8,2.7,63,0.00,,,0.00,WUHU21623XXSP,2013-08-08 16:11:00,
2013-08-08 11:16:00,78.6,65.0,29.24,SE,135,2.7,2.7,63,0.00,,,0.00,WUHU21623XXSP,2013-08-08 16:16:00,
2013-08-08 11:21:00,79.0,65.3,29.24,SSE,157,0.0,2.7,63,0.00,,,0.00,WUHU21623XXSP,2013-08-08 16:21:00,
2013-08-08 11:26:00,79.3,65.6,29.24,ESE,112,5.8,5.8,63,0.00,,,0.00,WUHU21623XXSP,2013-08-08 16:26:00,
2013-08-08 11:31:00,79.7,65.8,29.24,NE,45,0.4,5.8,62,0.00,,,0.00,WUHU21623XXSP,2013-08-08 16:31:00,
2013-08-08 11:36:00,79.7,65.1,29.23,NNE,22,0.0,0.4,61,0.00,,,0.00,WUHU21623XXSP,2013-08-08 16:36:00,
2013-08-08 11:41:00,79.7,65.6,29.23,NE,45,0.4,0.4,62,0.00,,,0.00,WUHU21623XXSP,2013-08-08 16:41:00,
2013-08-08 11:46:00,79.9,65.3,29.23,SSW,202,2.9,7.6,62,0.00,,,0.00,WUHU21623XXSP,2013-08-08 16:46:00,
2013-08-08 11:51:00,80.4,65.8,29.23,NE,45,0.0,7.6,61,0.00,,,0.00,WUHU21623XXSP,2013-08-08 16:51:00,
2013-08-08 11:56:00,80.6,65.5,29.23,NE,45,0.0,3.6,60,0.00,,,0.00,WUHU21623XXSP,2013-08-08 16:56:00,
2013-08-08 12:01:00,80.8,66.1,29.23,NE,45,0.0,3.6,61,0.00,,,0.00,WUHU21623XXSP,2013-08-08 17:01:00,
2013-08-08 12:06:00,80.8,65.6,29.23,NE,45,2.2,2.2,61,0.00,,,0.00,WUHU21623XXSP,2013-08-08 17:06:00,
2013-08-08 12:11:00,80.6,65.5,29.22,NE,45,3.4,3.4,60,0.00,,,0.00,WUHU21623XXSP,2013-08-08 17:11:00,
2013-08-08 12:16:00,80.4,65.3,29.22,NE,45,1.3,3.4,60,0.00,,,0.00,WUHU21623XXSP,2013-08-08 17:16:00,
2013-08-08 12:21:00,80.8,66.1,29.22,SE,135,2.5,3.1,61,0.00,,,0.00,WUHU21623XXSP,2013-08-08 17:21:00,
2013-08-08 12:26:00,81.1,66.4,29.22,ESE,112,0.0,3.1,61,0.00,,,0.00,WUHU21623XXSP,2013-08-08 17:26:00,
2013-08-08 12:31:00,81.7,66.5,29.21,NE,45,0.0,0.0,60,0.00,,,0.00,WUHU21623XXSP,2013-08-08 17:31:00,
2013-08-08 12:36:00,81.7,65.9,29.21,NNE,22,0.0,1.8,59,0.00,,,0.00,WUHU21623XXSP,2013-08-08 17:36:00,
2013-08-08 12:41:00,81.7,65.9,29.21,NNE,22,0.7,1.8,59,0.00,,,0.00,WUHU21623XXSP,2013-08-08 17:41:00,
2013-08-08 12:46:00,81.7,65.9,29.21,NE,45,0.4,1.1,59,0.00,,,0.00,WUHU21623XXSP,2013-08-08 17:46:00,
2013-08-08 12:51:00,82.0,66.3,29.21,ESE,112,0.0,0.4,59,0.00,,,0.00,WUHU21623XXSP,2013-08-08 17:51:00,
2013-08-08 12:56:00,81.7,65.4,29.21,NE,45,0.4,3.1,58,0.00,,,0.00,WUHU21623XXSP,2013-08-08 17:56:00,
2013-08-08 13:01:00,81.9,66.1,29.21,North,0,1.6,3.1,59,0.00,,,0.00,WUHU21623XXSP,2013-08-08 18:01:00,
2013-08-08 13:06:00,81.9,65.6,29.21,NNE,22,2.7,2.7,58,0.00,,,0.00,WUHU21623XXSP,2013-08-08 18:06:00,
2013-08-08 13:11:00,82.0,65.7,29.21,SE,135,0.0,4.5,58,0.00,,,0.00,WUHU21623XXSP,2013-08-08 18:11:00,
2013-08-08 13:16:00,82.6,66.2,29.21,NE,45,0.0,4.9,58,0.00,,,0.00,WUHU21623XXSP,2013-08-08 18:16:00,
2013-08-08 13:21:00,82.9,66.6,29.21,SE,135,0.0,4.9,58,0.00,,,0.00,WUHU21623XXSP,2013-08-08 18:21:00,
2013-08-08 13:26:00,83.5,66.6,29.21,NE,45,0.0,1.6,57,0.00,,,0.00,WUHU21623XXSP,2013-08-08 18:26:00,
2013-08-08 13:31:00,83.8,66.5,29.21,North,0,5.1,5.1,56,0.00,,,0.00,WUHU21623XXSP,2013-08-08 18:31:00,
2013-08-08 13:36:00,84.2,66.8,29.21,SSW,202,0.0,5.1,56,0.00,,,0.00,WUHU21623XXSP,2013-08-08 18:36:00,
2013-08-08 13:41:00,84.4,66.5,29.21,NNE,22,0.0,2.0,55,0.00,,,0.00,WUHU21623XXSP,2013-08-08 18:41:00,
2013-08-08 13:46:00,84.4,67.0,29.21,NE,45,3.6,3.6,56,0.00,,,0.00,WUHU21623XXSP,2013-08-08 18:46:00,
2013-08-08 13:51:00,84.6,66.6,29.21,NE,45,4.3,4.3,55,0.00,,,0.00,WUHU21623XXSP,2013-08-08 18:51:00,
2013-08-08 13:56:00,84.9,66.4,29.21,SE,135,0.0,4.3,54,0.00,,,0.00,WUHU21623XXSP,2013-08-08 18:56:00,
2013-08-08 14:01:00,85.1,66.1,29.21,NNE,22,0.9,1.6,53,0.00,,,0.00,WUHU21623XXSP,2013-08-08 19:01:00,
2013-08-08 14:06:00,84.6,65.0,29.21,NNE,22,1.3,1.6,52,0.00,,,0.00,WUHU21623XXSP,2013-08-08 19:06:00,
2013-08-08 14:11:00,84.0,65.1,29.20,North,0,1.3,2.0,53,0.00,,,0.00,WUHU21623XXSP,2013-08-08 19:11:00,
2013-08-08 14:16:00,83.8,65.4,29.20,SSW,202,0.7,2.0,54,0.00,,,0.00,WUHU21623XXSP,2013-08-08 19:16:00,
2013-08-08 14:21:00,83.7,65.2,29.20,NNE,22,0.9,0.9,54,0.00,,,0.00,WUHU21623XXSP,2013-08-08 19:21:00,
2013-08-08 14:26:00,83.8,65.9,29.20,North,0,1.6,2.5,55,0.00,,,0.00,WUHU21623XXSP,2013-08-08 19:26:00,
2013-08-08 14:31:00,84.0,66.1,29.20,NE,45,2.2,2.5,54,0.00,,,0.00,WUHU21623XXSP,2013-08-08 19:31:00,
2013-08-08 14:36:00,83.8,65.4,29.20,NNE,22,3.8,3.8,54,0.00,,,0.00,WUHU21623XXSP,2013-08-08 19:36:00,
2013-08-08 14:41:00,82.9,65.0,29.20,NNE,22,1.8,3.8,55,0.00,,,0.00,WUHU21623XXSP,2013-08-08 19:41:00,
2013-08-08 14:46:00,83.1,65.2,29.20,NE,45,0.7,5.4,55,0.00,,,0.00,WUHU21623XXSP,2013-08-08 19:46:00,
2013-08-08 14:52:00,83.5,65.6,29.20,NE,45,4.7,5.4,55,0.00,,,0.00,WUHU21623XXSP,2013-08-08 19:52:00,
2013-08-08 14:57:00,83.8,65.9,29.20,NNE,22,0.0,4.7,55,0.00,,,0.00,WUHU21623XXSP,2013-08-08 19:57:00,
2013-08-08 15:02:00,84.0,65.6,29.20,NE,45,0.4,1.3,54,0.00,,,0.00,WUHU21623XXSP,2013-08-08 20:02:00,
2013-08-08 15:07:00,84.4,65.8,29.19,NNE,22,0.0,0.4,54,0.00,,,0.00,WUHU21623XXSP,2013-08-08 20:07:00,
2013-08-08 15:12:00,84.2,65.8,29.19,NE,45,0.2,0.2,54,0.00,,,0.00,WUHU21623XXSP,2013-08-08 20:12:00,
2013-08-08 15:17:00,83.8,65.6,29.19,NE,45,0.2,0.2,54,0.00,,,0.00,WUHU21623XXSP,2013-08-08 20:17:00,
2013-08-08 15:22:00,83.5,65.6,29.19,ESE,112,0.0,0.2,55,0.00,,,0.00,WUHU21623XXSP,2013-08-08 20:22:00,
2013-08-08 15:27:00,83.8,65.9,29.19,ESE,112,0.0,0.0,55,0.00,,,0.00,WUHU21623XXSP,2013-08-08 20:27:00,
2013-08-08 15:32:00,83.8,66.1,29.19,ESE,112,0.0,0.0,54,0.00,,,0.00,WUHU21623XXSP,2013-08-08 20:32:00,
2013-08-08 15:37:00,83.5,65.0,29.19,NE,45,1.6,1.6,54,0.00,,,0.00,WUHU21623XXSP,2013-08-08 20:37:00,
2013-08-08 15:38:00,83.5,65.0,29.19,NE,45,1.6,1.6,54,0.00,,,0.00,WUHU21623XXSP,2013-08-08 20:38:00,
2013-08-08 15:43:00,83.5,65.6,29.19,ENE,67,1.8,1.8,55,0.00,,,0.00,WUHU21623XXSP,2013-08-08 20:43:00,
2013-08-08 15:48:00,84.0,65.6,29.19,NE,45,2.9,2.9,54,0.00,,,0.00,WUHU21623XXSP,2013-08-08 20:48:00,
2013-08-08 15:53:00,84.2,65.2,29.20,North,0,2.7,2.9,53,0.00,,,0.00,WUHU21623XXSP,2013-08-08 20:53:00,
2013-08-08 15:58:00,84.4,65.2,29.20,NNE,22,7.4,7.4,53,0.00,,,0.00,WUHU21623XXSP,2013-08-08 20:58:00,
2013-08-08 16:03:00,84.6,65.6,29.20,NNE,22,2.0,7.4,53,0.00,,,0.00,WUHU21623XXSP,2013-08-08 21:03:00,
2013-08-08 16:08:00,84.4,65.0,29.20,NNE,22,0.0,2.0,52,0.00,,,0.00,WUHU21623XXSP,2013-08-08 21:08:00,
2013-08-08 16:13:00,84.0,65.1,29.20,SE,135,0.2,8.1,53,0.00,,,0.00,WUHU21623XXSP,2013-08-08 21:13:00,
2013-08-08 16:18:00,82.9,64.5,29.20,NNE,22,2.0,8.1,54,0.00,,,0.00,WUHU21623XXSP,2013-08-08 21:18:00,
2013-08-08 16:23:00,82.8,64.8,29.20,NNE,22,0.4,2.0,55,0.00,,,0.00,WUHU21623XXSP,2013-08-08 21:23:00,
2013-08-08 16:29:00,82.9,65.0,29.20,East,90,0.0,1.6,55,0.00,,,0.00,WUHU21623XXSP,2013-08-08 21:29:00,
2013-08-08 16:34:00,82.9,64.5,29.20,NNE,22,1.6,1.6,54,0.00,,,0.00,WUHU21623XXSP,2013-08-08 21:34:00,
2013-08-08 16:39:00,82.6,64.7,29.20,NNE,22,0.9,1.6,55,0.00,,,0.00,WUHU21623XXSP,2013-08-08 21:39:00,
2013-08-08 16:45:00,82.8,65.2,29.20,NNE,22,2.5,2.5,56,0.00,,,0.00,WUHU21623XXSP,2013-08-08 21:45:00,
2013-08-08 16:50:00,83.1,65.6,29.20,North,0,3.1,3.1,55,0.00,,,0.00,WUHU21623XXSP,2013-08-08 21:50:00,
2013-08-08 16:55:00,83.7,65.8,29.20,NNW,337,2.2,3.1,55,0.00,,,0.00,WUHU21623XXSP,2013-08-08 21:55:00,
2013-08-08 17:00:00,83.5,65.2,29.20,NNW,337,2.2,2.2,54,0.00,,,0.00,WUHU21623XXSP,2013-08-08 22:00:00,
2013-08-08 17:05:00,83.3,64.3,29.20,NNE,22,0.0,2.2,53,0.00,,,0.00,WUHU21623XXSP,2013-08-08 22:05:00,
2013-08-08 17:10:00,82.9,64.5,29.20,NNE,22,4.3,4.3,54,0.00,,,0.00,WUHU21623XXSP,2013-08-08 22:10:00,
2013-08-08 17:15:00,82.6,64.8,29.21,NE,45,5.8,5.8,54,0.00,,,0.00,WUHU21623XXSP,2013-08-08 22:15:00,
2013-08-08 17:20:00,82.2,64.3,29.20,NNE,22,7.4,7.4,55,0.00,,,0.00,WUHU21623XXSP,2013-08-08 22:20:00,
2013-08-08 17:25:00,82.2,64.3,29.21,NNE,22,4.3,7.4,55,0.00,,,0.00,WUHU21623XXSP,2013-08-08 22:25:00,
2013-08-08 17:30:00,82.2,63.8,29.21,NNE,22,0.4,4.3,54,0.00,,,0.00,WUHU21623XXSP,2013-08-08 22:30:00,
2013-08-08 17:35:00,82.0,64.2,29.21,NNE,22,3.8,3.8,55,0.00,,,0.00,WUHU21623XXSP,2013-08-08 22:35:00,
2013-08-08 17:41:00,82.0,64.2,29.21,NNE,22,0.4,3.8,55,0.00,,,0.00,WUHU21623XXSP,2013-08-08 22:41:00,
2013-08-08 17:46:00,81.7,64.4,29.21,NNE,22,3.6,3.6,56,0.00,,,0.00,WUHU21623XXSP,2013-08-08 22:46:00,
2013-08-08 17:52:00,81.7,64.4,29.21,NNE,22,0.0,5.4,56,0.00,,,0.00,WUHU21623XXSP,2013-08-08 22:52:00,
2013-08-08 17:57:00,81.7,64.4,29.21,NE,45,0.9,5.4,56,0.00,,,0.00,WUHU21623XXSP,2013-08-08 22:57:00,
2013-08-08 18:02:00,81.5,64.2,29.21,NNE,22,0.0,2.7,56,0.00,,,0.00,WUHU21623XXSP,2013-08-08 23:02:00,
2013-08-08 18:07:00,81.1,63.9,29.21,NNE,22,1.3,1.8,56,0.00,,,0.00,WUHU21623XXSP,2013-08-08 23:07:00,
2013-08-08 18:12:00,80.8,64.1,29.21,NNE,22,1.6,1.8,57,0.00,,,0.00,WUHU21623XXSP,2013-08-08 23:12:00,
2013-08-08 18:18:00,80.4,63.8,29.21,NNE,22,0.0,1.6,57,0.00,,,0.00,WUHU21623XXSP,2013-08-08 23:18:00,
2013-08-08 18:23:00,80.2,64.1,29.20,NNE,22,0.0,1.6,58,0.00,,,0.00,WUHU21623XXSP,2013-08-08 23:23:00,
2013-08-08 18:28:00,79.9,64.1,29.20,NNE,22,0.0,0.0,58,0.00,,,0.00,WUHU21623XXSP,2013-08-08 23:28:00,
2013-08-08 18:33:00,79.9,64.3,29.20,NNE,22,0.7,0.9,59,0.00,,,0.00,WUHU21623XXSP,2013-08-08 23:33:00,
2013-08-08 18:38:00,79.9,64.3,29.20,NNE,22,0.0,0.9,59,0.00,,,0.00,WUHU21623XXSP,2013-08-08 23:38:00,
2013-08-08 18:43:00,79.7,64.3,29.20,NNE,22,0.0,0.0,59,0.00,,,0.00,WUHU21623XXSP,2013-08-08 23:43:00,
2013-08-08 18:49:00,79.5,64.5,29.20,NNE,22,0.0,1.3,60,0.00,,,0.00,WUHU21623XXSP,2013-08-08 23:49:00,
2013-08-08 18:54:00,79.3,64.3,29.20,NNE,22,0.0,1.6,60,0.00,,,0.00,WUHU21623XXSP,2013-08-08 23:54:00,
2013-08-08 18:59:00,79.3,64.3,29.21,NNE,22,0.0,1.6,60,0.00,,,0.00,WUHU21623XXSP,2013-08-08 23:59:00,
2013-08-08 19:05:00,79.2,64.6,29.20,NNE,22,0.0,0.0,61,0.00,,,0.00,WUHU21623XXSP,2013-08-09 00:05:00,
2013-08-08 19:10:00,79.2,64.6,29.21,NNE,22,0.7,0.7,61,0.00,,,0.00,WUHU21623XXSP,2013-08-09 00:10:00,
2013-08-08 19:15:00,79.0,64.6,29.21,NNE,22,0.0,0.7,61,0.00,,,0.00,WUHU21623XXSP,2013-08-09 00:15:00,
2013-08-08 19:20:00,79.0,64.5,29.21,NE,45,1.1,1.1,61,0.00,,,0.00,WUHU21623XXSP,2013-08-09 00:20:00,
2013-08-08 19:25:00,78.6,64.1,29.21,NE,45,0.0,1.1,61,0.00,,,0.00,WUHU21623XXSP,2013-08-09 00:25:00,
2013-08-08 19:30:00,78.6,64.5,29.21,NE,45,0.0,0.0,62,0.00,,,0.00,WUHU21623XXSP,2013-08-09 00:30:00,
2013-08-08 19:35:00,78.4,64.4,29.21,NE,45,0.0,0.0,62,0.00,,,0.00,WUHU21623XXSP,2013-08-09 00:35:00,
2013-08-08 19:40:00,78.1,64.0,29.20,NE,45,0.0,0.0,62,0.00,,,0.00,WUHU21623XXSP,2013-08-09 00:40:00,
2013-08-08 19:45:00,77.9,64.3,29.21,NE,45,0.0,0.0,63,0.00,,,0.00,WUHU21623XXSP,2013-08-09 00:45:00,
2013-08-08 19:51:00,77.7,64.1,29.21,NE,45,0.0,0.0,63,0.00,,,0.00,WUHU21623XXSP,2013-08-09 00:51:00,
2013-08-08 19:56:00,77.7,64.1,29.21,NE,45,0.0,0.0,63,0.00,,,0.00,WUHU21623XXSP,2013-08-09 00:56:00,
2013-08-08 20:01:00,77.5,63.9,29.20,NE,45,0.0,0.0,63,0.00,,,0.00,WUHU21623XXSP,2013-08-09 01:01:00,
2013-08-08 20:06:00,77.4,63.8,29.20,NE,45,0.0,0.0,63,0.00,,,0.00,WUHU21623XXSP,2013-08-09 01:06:00,
2013-08-08 20:11:00,77.2,63.6,29.20,NE,45,0.0,0.0,63,0.00,,,0.00,WUHU21623XXSP,2013-08-09 01:11:00,
2013-08-08 20:16:00,77.0,63.4,29.21,NE,45,0.0,0.0,63,0.00,,,0.00,WUHU21623XXSP,2013-08-09 01:16:00,
2013-08-08 20:21:00,76.8,63.7,29.20,NE,45,0.0,0.0,64,0.00,,,0.00,WUHU21623XXSP,2013-08-09 01:21:00,
2013-08-08 20:26:00,76.8,63.7,29.20,NE,45,0.0,0.0,64,0.00,,,0.00,WUHU21623XXSP,2013-08-09 01:26:00,
2013-08-08 20:31:00,76.6,64.0,29.21,NE,45,0.7,0.7,65,0.00,,,0.00,WUHU21623XXSP,2013-08-09 01:31:00,
2013-08-08 20:36:00,76.3,63.6,29.20,NE,45,0.0,0.7,65,0.00,,,0.00,WUHU21623XXSP,2013-08-09 01:36:00,
2013-08-08 20:42:00,76.1,63.9,29.20,NE,45,0.0,0.0,66,0.00,,,0.00,WUHU21623XXSP,2013-08-09 01:42:00,
2013-08-08 20:47:00,75.9,63.7,29.20,NE,45,0.0,0.0,66,0.00,,,0.00,WUHU21623XXSP,2013-08-09 01:47:00,
2013-08-08 20:52:00,75.7,64.0,29.21,NE,45,0.0,0.0,67,0.00,,,0.00,WUHU21623XXSP,2013-08-09 01:52:00,
2013-08-08 20:57:00,75.6,63.8,29.21,NE,45,0.0,0.0,67,0.00,,,0.00,WUHU21623XXSP,2013-08-09 01:57:00,
2013-08-08 21:02:00,75.6,63.8,29.21,NE,45,0.0,0.0,67,0.00,,,0.00,WUHU21623XXSP,2013-08-09 02:02:00,
2013-08-08 21:07:00,75.4,64.1,29.20,NE,45,0.0,0.0,68,0.00,,,0.00,WUHU21623XXSP,2013-08-09 02:07:00,
2013-08-08 21:12:00,75.0,63.7,29.21,NE,45,0.0,0.0,68,0.00,,,0.00,WUHU21623XXSP,2013-08-09 02:12:00,
2013-08-08 21:17:00,75.0,63.7,29.21,NE,45,0.0,0.0,68,0.00,,,0.00,WUHU21623XXSP,2013-08-09 02:17:00,
2013-08-08 21:22:00,74.8,63.6,29.21,NE,45,0.0,0.0,68,0.00,,,0.00,WUHU21623XXSP,2013-08-09 02:22:00,
2013-08-08 21:28:00,74.8,63.6,29.21,NE,45,0.0,0.0,68,0.00,,,0.00,WUHU21623XXSP,2013-08-09 02:28:00,
2013-08-08 21:33:00,74.8,63.6,29.21,NE,45,0.0,0.0,68,0.00,,,0.00,WUHU21623XXSP,2013-08-09 02:33:00,
2013-08-08 21:39:00,74.8,63.6,29.21,NE,45,0.0,0.0,68,0.00,,,0.00,WUHU21623XXSP,2013-08-09 02:39:00,
2013-08-08 21:44:00,74.5,63.8,29.22,NE,45,0.0,0.0,69,0.00,,,0.00,WUHU21623XXSP,2013-08-09 02:44:00,
2013-08-08 21:49:00,74.5,63.7,29.21,NE,45,0.0,0.0,69,0.00,,,0.00,WUHU21623XXSP,2013-08-09 02:49:00,
2013-08-08 21:54:00,74.3,63.5,29.22,NE,45,0.0,0.0,70,0.00,,,0.00,WUHU21623XXSP,2013-08-09 02:54:00,
2013-08-08 21:59:00,74.1,64.0,29.22,NE,45,0.0,0.0,70,0.00,,,0.00,WUHU21623XXSP,2013-08-09 02:59:00,
2013-08-08 22:04:00,74.1,63.8,29.22,NE,45,0.0,0.0,70,0.00,,,0.00,WUHU21623XXSP,2013-08-09 03:04:00,
2013-08-08 22:09:00,73.9,63.6,29.23,NE,45,0.0,0.0,70,0.00,,,0.00,WUHU21623XXSP,2013-08-09 03:09:00,
2013-08-08 22:14:00,73.9,63.6,29.22,NE,45,0.0,0.0,70,0.00,,,0.00,WUHU21623XXSP,2013-08-09 03:14:00,
2013-08-08 22:19:00,73.8,63.5,29.23,NE,45,0.0,0.0,70,0.00,,,0.00,WUHU21623XXSP,2013-08-09 03:19:00,
2013-08-08 22:24:00,73.6,63.5,29.23,NE,45,0.0,0.0,70,0.00,,,0.00,WUHU21623XXSP,2013-08-09 03:24:00,
2013-08-08 22:30:00,73.6,63.3,29.23,NE,45,0.0,0.0,70,0.00,,,0.00,WUHU21623XXSP,2013-08-09 03:30:00,
2013-08-08 22:35:00,73.6,63.3,29.23,NE,45,0.0,0.0,70,0.00,,,0.00,WUHU21623XXSP,2013-08-09 03:35:00,
2013-08-08 22:40:00,73.2,63.3,29.23,NE,45,0.0,0.0,71,0.00,,,0.00,WUHU21623XXSP,2013-08-09 03:40:00,
2013-08-08 22:45:00,73.2,63.3,29.23,NE,45,0.0,0.0,71,0.00,,,0.00,WUHU21623XXSP,2013-08-09 03:45:00,
2013-08-08 22:50:00,73.2,63.3,29.23,NE,45,0.0,0.0,71,0.00,,,0.00,WUHU21623XXSP,2013-08-09 03:50:00,
2013-08-08 22:55:00,73.2,63.3,29.23,NE,45,0.0,0.0,71,0.00,,,0.00,WUHU21623XXSP,2013-08-09 03:55:00,
2013-08-08 22:57:00,73.2,63.4,29.23,NE,45,0.0,0.0,71,0.00,,,0.00,WUHU21623XXSP,2013-08-09 03:57:00,
2013-08-08 23:57:00,71.8,62.5,29.24,NE,45,0.0,0.0,72,0.00,,,0.00,WUHU21623XXSP,2013-08-09 04:57:00,